[[{"header":{"parameterUnit":"m.s-1","parameterCategory":1,"la1":30.2991,"la2":30.254,"lo1":-89.0895,"lo2":-89.0444,"dy":0.0017,"dx":0.0017,"nx":28,"ny":28,"refTime":"2025-05-18T09:00:00:Z","depth":0,"parameterNumber":2,"parameterNumberName":"U-component_of_WINDS"},"data":[0,0,0,0,0,0,0,0,0,0,0,0,0,0,0,0,0,0,0,0,0,0,0,0,0,0,0,0,0,0,0,0,0,0,0,0,0,0,0,0,0,0,0,0,0,0,0,0,0,0,0,0,0,0,0,0,0,0,-1.8434,-1.8434,0,-1.8439,-1.8439,-1.8439,-1.8415,-1.8414,-1.8414,-1.8413,-1.8419,-1.842,-1.8421,0,0,0,0,0,0,0,0,0,0,0,0,0,-1.8406,-1.8407,-1.8434,-1.8434,-1.8435,-1.8439,-1.8439,-1.8439,-1.8415,-1.8414,-1.8413,-1.8413,-1.8419,-1.842,-1.8421,0,0,0,0,0,0,0,0,0,0,0,0,0,-1.8416,-1.8407,-1.8434,-1.8423,-1.8422,-1.8439,-1.8439,-1.8439,-1.8415,-1.8414,-1.8413,-1.8412,-1.8418,-1.842,-1.8421,-1.8449,0,0,-1.8424,-1.8425,0,0,0,0,0,0,0,0,-1.8415,-1.8417,-1.8425,-1.8424,-1.8423,-1.8425,-1.8431,-1.8443,-1.8416,-1.8418,-1.8413,-1.8412,-1.8422,-1.8423,-1.8426,-1.845,-1.845,-1.8425,-1.8425,-1.8426,-1.8426,0,0,0,0,0,0,0,-1.8414,-1.8416,-1.8436,-1.8425,-1.8424,-1.8418,-1.8418,-1.8433,-1.8426,-1.8418,-1.8416,-1.8417,-1.8421,-1.8425,-1.8426,-1.845,-1.8425,-1.8426,-1.8426,-1.8427,-1.8498,-1.8499,0,0,0,0,0,0,-1.8415,-1.8416,-1.8436,-1.8436,-1.8416,-1.842,-1.842,-1.8426,-1.8426,-1.8425,-1.8418,-1.8416,-1.8423,-1.8425,-1.8426,-1.846,-1.8426,-1.8427,-1.8428,-1.8496,-1.8498,-1.8499,0,0,0,0,0,0,-1.8415,-1.8417,-1.8436,-1.8426,-1.8428,-1.8421,-1.8428,-1.8426,-1.843,-1.8426,-1.8424,-1.8423,-1.8423,-1.8424,-1.8444,-1.8459,-1.8428,-1.8429,-1.8495,-1.8497,-1.8498,-1.8527,0,0,0,0,0,0,-1.8414,-1.8417,-1.8427,-1.8426,-1.8428,-1.8453,-1.8429,-1.8427,-1.8432,-1.8429,-1.843,-1.8429,-1.8422,-1.8442,-1.8445,-1.8461,-1.843,-1.8494,-1.8496,-1.8498,-1.8524,-1.8529,-1.8533,0,0,0,0,0,-1.8413,-1.8435,-1.8428,-1.8431,-1.8441,-1.8454,-1.8455,-1.8446,-1.8433,-1.8444,-1.8441,-1.8429,-1.8458,-1.8444,-1.8447,-1.8464,-1.8493,-1.8495,-1.8498,-1.8522,-1.8528,-1.8533,0,0,0,0,0,0,-1.8439,-1.8435,-1.8427,-1.8449,-1.8452,-1.845,-1.8463,-1.8453,-1.846,-1.8457,-1.8446,-1.8446,-1.8468,-1.8468,-1.8453,-1.8491,-1.8473,-1.8476,-1.849,-1.8496,-1.8501,-1.85,-1.8431,0,0,0,0,0,-1.8447,-1.8457,-1.8454,-1.8474,-1.8476,-1.8469,-1.8474,-1.8467,-1.847,-1.8471,-1.847,-1.8473,-1.8483,-1.849,-1.8498,-1.8525,-1.8525,-1.8537,-1.8542,-1.8546,-1.8548,-1.8563,-1.8568,-1.8508,-1.8508,-1.8508,0,0,-1.8464,-1.8463,-1.8471,-1.8479,-1.848,-1.8492,-1.847,-1.8483,-1.8492,-1.8473,-1.8491,-1.8491,-1.8494,-1.8517,-1.8527,-1.8517,-1.8565,-1.8549,-1.8552,-1.8553,-1.8566,-1.8572,-1.8577,-1.8509,-1.8509,-1.8509,0,0,-1.8501,-1.8502,-1.8519,-1.8521,-1.8523,-1.8518,-1.8523,-1.8522,-1.8521,-1.8539,-1.8525,-1.8536,-1.8553,-1.8556,-1.8559,-1.8599,-1.8588,-1.8602,-1.8625,-1.8639,-1.8644,-1.8648,-1.8662,-1.8667,-1.8605,-1.8605,-1.8605,0,-1.8522,-1.8539,-1.8529,-1.8543,-1.8547,-1.8531,-1.8548,-1.8551,-1.8556,-1.856,-1.8549,-1.857,-1.8571,-1.8595,-1.8605,-1.8608,-1.8613,-1.8601,-1.8644,-1.8648,-1.8652,-1.8665,-1.867,-1.8607,-1.8607,-1.8606,-1.8606,0,-1.8565,-1.8576,-1.859,-1.8595,-1.8601,-1.8617,-1.861,-1.8617,-1.861,-1.8607,-1.8626,-1.8627,-1.8635,-1.8641,-1.8634,-1.8663,-1.8658,-1.8646,-1.8627,-1.866,-1.8672,-1.8677,-1.8609,-1.8609,-1.8608,-1.8608,0,0,-1.8617,-1.8617,-1.8622,-1.8625,-1.8626,-1.8635,-1.8651,-1.8659,-1.8666,-1.867,-1.8683,-1.8698,-1.8688,-1.8692,-1.8686,-1.8698,-1.8729,-1.8685,-1.8685,-1.8693,-1.8762,-1.877,-1.8776,-1.8722,-1.8723,-1.8724,-1.8762,0,-1.8653,-1.8679,-1.8671,-1.8697,-1.8707,-1.8693,-1.8706,-1.8709,-1.8707,-1.8717,-1.8715,-1.8725,-1.8711,-1.8713,-1.8725,-1.8723,-1.8743,-1.872,-1.8734,-1.8735,-1.8733,-1.8783,-1.8792,-1.8827,-1.8766,-1.8767,-1.8768,0,-1.8698,-1.8704,-1.8731,-1.8732,-1.8736,-1.8748,-1.8756,-1.8765,-1.8768,-1.8766,-1.8771,-1.8762,-1.8778,-1.876,-1.8781,-1.8766,-1.8772,-1.8772,-1.8773,-1.8774,-1.8753,-1.8784,-1.8838,-1.8843,-1.8775,-1.8775,-1.8774,0,-1.8734,-1.8749,-1.8767,-1.877,-1.8771,-1.878,-1.878,-1.8783,-1.8789,-1.8795,-1.8799,-1.8808,-1.8812,-1.882,-1.8814,-1.8801,-1.8837,-1.8818,-1.8835,-1.8835,-1.8843,-1.8842,-1.8898,-1.8847,-1.8847,-1.8847,-1.8847,0,-1.8775,-1.8792,-1.8783,-1.8794,-1.8813,-1.8804,-1.8823,-1.8823,-1.8825,-1.8836,-1.8825,-1.8836,-1.8827,-1.8838,-1.8834,-1.8852,-1.8855,-1.8853,-1.8852,-1.8854,-1.8854,-1.8857,-1.8854,-1.8849,-1.8848,-1.8848,-1.8848,0,-1.8817,-1.8812,-1.8831,-1.883,-1.8831,-1.8845,-1.8844,-1.8855,-1.8852,-1.8867,-1.887,-1.8866,-1.8877,-1.8873,-1.8885,-1.8882,-1.8906,-1.8902,-1.8905,-1.8903,-1.8921,-1.892,-1.898,-1.8988,-1.8933,-1.8933,-1.8934,0,-1.8843,-1.8856,-1.8857,-1.8864,-1.8865,-1.8876,-1.8882,-1.8874,-1.888,-1.8886,-1.8896,-1.8906,-1.8914,-1.8934,-1.8932,-1.8942,-1.8938,-1.8958,-1.8939,-1.8941,-1.8938,-1.8937,-1.8938,-1.8962,-1.8963,-1.8963,-1.8963,0,-1.8891,-1.8887,-1.8896,-1.8904,-1.8911,-1.8917,-1.8922,-1.8928,-1.892,-1.8928,-1.894,-1.8946,-1.8959,-1.897,-1.8978,-1.898,-1.8971,-1.897,-1.8974,-1.8976,-1.8977,-1.8977,-1.8915,-1.8968,-1.8968,-1.8967,-1.8967,-1.8967,-1.8926,-1.8936,-1.8939,-1.8949,-1.8952,-1.8956,-1.8966,-1.8965,-1.8974,-1.8984,-1.8979,-1.8993,-1.8997,-1.9007,-1.901,-1.9021,-1.9013,-1.902,-1.9021,-1.9023,-1.9025,-1.8976,-1.9023,-1.9022,-1.9022,-1.9022,-1.9022,0,-1.8972,-1.8973,-1.8982,-1.8989,-1.8997,-1.8988,-1.8993,-1.9,-1.9012,-1.9016,-1.9025,-1.9038,-1.9049,-1.9048,-1.9058,-1.9067,-1.9063,-1.907,-1.9069,-1.907,-1.9032,-1.9027,-1.9073,-1.9073,-1.9073,-1.9073,-1.9073,-1.9073,-1.8997,-1.9015,-1.9012,-1.9031,-1.9032,-1.9045,-1.9049,-1.9054,-1.9057,-1.9072,-1.9081,-1.9081,-1.9083,-1.9093,-1.9103,-1.9102,-1.9107,-1.9115,-1.9113,-1.9077,-1.9072,-1.9068,-1.9063,-1.9116,-1.9116,-1.915,-1.915,-1.9151]},{"header":{"parameterUnit":"m.s-1","parameterCategory":1,"la1":30.2991,"la2":30.254,"lo1":-89.0895,"lo2":-89.0444,"dy":0.0017,"dx":0.0017,"nx":28,"ny":28,"refTime":"2025-05-18T09:00:00:Z","depth":0,"parameterNumber":3,"parameterNumberName":"V-component_of_WINDS"},"data":[0,0,0,0,0,0,0,0,0,0,0,0,0,0,0,0,0,0,0,0,0,0,0,0,0,0,0,0,0,0,0,0,0,0,0,0,0,0,0,0,0,0,0,0,0,0,0,0,0,0,0,0,0,0,0,0,0,0,5.2363,5.2363,0,5.2386,5.2386,5.2386,5.2315,5.2313,5.2311,5.2309,5.2329,5.2331,5.2334,0,0,0,0,0,0,0,0,0,0,0,0,0,5.2255,5.2257,5.2363,5.2363,5.2364,5.2386,5.2386,5.2386,5.2315,5.2313,5.231,5.2308,5.2328,5.2331,5.2334,0,0,0,0,0,0,0,0,0,0,0,0,0,5.2292,5.2258,5.2363,5.2331,5.2328,5.2386,5.2386,5.2386,5.2316,5.2313,5.231,5.2306,5.2327,5.2331,5.2335,5.2423,0,0,5.2346,5.2348,0,0,0,0,0,0,0,0,5.229,5.2296,5.2335,5.2333,5.233,5.2344,5.2355,5.2398,5.2317,5.2321,5.2309,5.2305,5.2336,5.2339,5.2351,5.2424,5.2425,5.2347,5.2349,5.235,5.2352,0,0,0,0,0,0,0,5.2288,5.2295,5.2372,5.2336,5.2333,5.2314,5.2316,5.2363,5.2346,5.232,5.2315,5.2319,5.2334,5.2347,5.235,5.2425,5.2346,5.235,5.2352,5.2354,5.2571,5.2575,0,0,0,0,0,0,5.229,5.2293,5.2371,5.2373,5.2302,5.2319,5.2321,5.2343,5.2346,5.2343,5.2321,5.2315,5.2342,5.2346,5.2351,5.2454,5.235,5.2354,5.2356,5.2568,5.2572,5.2576,0,0,0,0,0,0,5.2288,5.2297,5.237,5.2332,5.2339,5.2324,5.235,5.2345,5.2358,5.2347,5.2343,5.2338,5.234,5.2346,5.2406,5.2454,5.2356,5.2359,5.2564,5.2569,5.2574,5.2662,0,0,0,0,0,0,5.2285,5.2297,5.2331,5.2333,5.2342,5.2426,5.2353,5.2348,5.2365,5.2357,5.2361,5.2358,5.2338,5.24,5.2409,5.2457,5.2362,5.2559,5.2566,5.2572,5.2655,5.267,5.2682,0,0,0,0,0,5.2281,5.2354,5.2333,5.2343,5.2384,5.2429,5.2434,5.2409,5.2369,5.2403,5.2396,5.2358,5.2447,5.2407,5.2417,5.2467,5.2556,5.2564,5.2572,5.2649,5.2667,5.2682,0,0,0,0,0,0,5.2358,5.2354,5.2331,5.2407,5.2419,5.2417,5.2458,5.2429,5.2452,5.2443,5.2411,5.2412,5.2478,5.2478,5.2434,5.2552,5.2495,5.2505,5.255,5.2567,5.2581,5.2579,5.2365,0,0,0,0,0,5.2384,5.2421,5.2415,5.2483,5.249,5.2474,5.2492,5.2472,5.2483,5.2487,5.2484,5.2495,5.2526,5.2546,5.2573,5.2654,5.2654,5.2694,5.2707,5.2719,5.2728,5.2771,5.2788,5.2602,5.2602,5.2601,0,0,5.2437,5.244,5.2465,5.2498,5.2505,5.2544,5.2478,5.2522,5.255,5.2493,5.255,5.2549,5.2559,5.263,5.2661,5.2632,5.2779,5.2729,5.2738,5.2741,5.278,5.2798,5.2814,5.2607,5.2606,5.2605,0,0,5.2554,5.256,5.2617,5.2626,5.2638,5.2626,5.264,5.2643,5.264,5.2697,5.2655,5.2687,5.274,5.2749,5.2761,5.2882,5.2848,5.2892,5.2964,5.3006,5.302,5.3033,5.3076,5.3092,5.2901,5.2901,5.2901,0,5.2619,5.2676,5.265,5.2697,5.2712,5.2664,5.2721,5.273,5.275,5.2762,5.2729,5.2795,5.2798,5.2871,5.29,5.2911,5.2925,5.2891,5.3021,5.3033,5.3045,5.3085,5.3102,5.2906,5.2906,5.2905,5.2905,0,5.2755,5.2796,5.284,5.2862,5.2882,5.2934,5.2915,5.2938,5.2917,5.2909,5.2967,5.2969,5.2996,5.3012,5.2991,5.3081,5.3063,5.3026,5.2968,5.3068,5.3106,5.3121,5.2914,5.2912,5.291,5.2909,0,0,5.2921,5.2928,5.2944,5.2954,5.2963,5.2994,5.3043,5.307,5.3091,5.3106,5.3146,5.3193,5.3159,5.3172,5.3151,5.3188,5.3284,5.3147,5.3146,5.3172,5.3384,5.3411,5.343,5.3262,5.3265,5.3267,5.3383,0,5.3036,5.3122,5.3099,5.3184,5.3221,5.3176,5.3218,5.3229,5.3222,5.3252,5.3244,5.3277,5.323,5.3238,5.3272,5.3265,5.3326,5.3256,5.3298,5.33,5.3297,5.345,5.3479,5.3588,5.3397,5.34,5.3402,0,5.3182,5.3204,5.3293,5.3297,5.3312,5.3351,5.3374,5.3403,5.3413,5.3406,5.3421,5.3393,5.3441,5.3382,5.3447,5.34,5.3416,5.3415,5.3419,5.3421,5.3357,5.3456,5.3622,5.3639,5.3425,5.3423,5.3421,0,5.3294,5.3346,5.3406,5.3415,5.3421,5.345,5.3453,5.346,5.3478,5.3498,5.351,5.3535,5.3548,5.3568,5.3547,5.3507,5.3615,5.3555,5.361,5.3611,5.3635,5.3633,5.3806,5.3645,5.3645,5.3645,5.3644,0,5.3425,5.3481,5.3456,5.3493,5.3554,5.3528,5.3589,5.3587,5.3594,5.3629,5.3591,5.3624,5.3595,5.3626,5.361,5.3666,5.3672,5.3667,5.3662,5.367,5.3671,5.368,5.3672,5.3649,5.3648,5.3647,5.3646,0,5.3561,5.3546,5.3609,5.3609,5.3611,5.3656,5.3656,5.369,5.3681,5.3725,5.3734,5.372,5.3754,5.3735,5.377,5.3759,5.3832,5.3817,5.3829,5.3825,5.3881,5.3876,5.4064,5.4088,5.3913,5.3914,5.3916,0,5.3645,5.3688,5.3693,5.3715,5.3721,5.3756,5.3774,5.3749,5.377,5.3785,5.3817,5.3848,5.3871,5.3928,5.392,5.3946,5.3931,5.3995,5.3935,5.3942,5.3932,5.393,5.3934,5.4008,5.401,5.4011,5.4013,0,5.3797,5.3788,5.3817,5.3844,5.3867,5.3886,5.3902,5.3921,5.3897,5.3922,5.3957,5.3975,5.4011,5.4042,5.4065,5.4067,5.4036,5.4032,5.4046,5.4055,5.406,5.4058,5.3862,5.4028,5.4026,5.4025,5.4024,5.4024,5.391,5.3945,5.3955,5.3988,5.3998,5.4014,5.4046,5.4041,5.407,5.4098,5.4081,5.4122,5.4131,5.4158,5.4165,5.4196,5.417,5.4191,5.4196,5.4201,5.4209,5.4056,5.42,5.42,5.4199,5.4199,5.4199,0,5.406,5.4064,5.4095,5.4119,5.4145,5.4114,5.413,5.4154,5.4191,5.4202,5.4226,5.4266,5.4296,5.4291,5.4318,5.4344,5.433,5.4352,5.435,5.4351,5.423,5.4216,5.4363,5.4363,5.4363,5.4363,5.4363,5.4363,5.4141,5.4199,5.4192,5.4254,5.4257,5.4298,5.431,5.4324,5.4333,5.438,5.4405,5.4402,5.4406,5.4433,5.4459,5.4457,5.4469,5.4496,5.4488,5.4376,5.4359,5.4344,5.433,5.4498,5.4499,5.4606,5.4607,5.4608]}]]